DELTA 1 DEB

Satellite information

Favourite Embed

Satellite Type and Status

DEBRISIN ORBIT

Key statistics

Satellite DELTA 1 DEB at a glance.

Uptime

17354

Days in orbit

Revolutions

≈ 13.8

Per day

Orbit

SSO

Sun Synchronous Orbit

Inclination

98.9

Latest

Satellite identification and parameters

Extended collection of information and parameters for DELTA 1 DEB.

Object identification

Identified? True

Debris? True

Object name: DELTA 1 DEB

International designator: 1978-026JA

Object number (NORAD): 37639

Object ID (CCSDS): 37639

Country: UNITED STATES OF AMERICA (US)

Current information (Y/N): Y

RCS size: SMALL

Orbital parameters

Period: 104.02 minutes

Inclination: 98.9079 deg

SMA: 7326.637 km

Apoapsis: 1033.763 km

Periapsis: 863.24 km

RAAN: 161.8411 deg

Eccentricy: 0.01163717

Argument of periapsis: 107.2569 deg

Mean anomaly: 42.9027 deg

Mean motion: 13.8434959 rev/day

Mean motion (dot): 0.00000231 rev/day2

B* drag term: 0.0002303918 1/REarth

Two-line elements (TLE)

Creation date: Aug. 29, 2025, 9:54 a.m.

Reference frame: TEME

Reference center: EARTH

Epoch: Aug. 29, 2025, 6:36 a.m. UTC

TLE line 0: 0 DELTA 1 DEB

TLE line 1: 1 37639U 78026JA 25241.27559571 .00000231 00000-0 23039-3 0 9992

TLE line 2: 2 37639 98.9079 161.8411 0116372 107.2569 42.9027 13.84349590670030

Live tracking on map

Real-time ground track for satellite DELTA 1 DEB.

In-orbit conjunctions

A list of the most updated potential collisions computed for object DELTA 1 DEB.

Target Orbit TCA Probability of collision Miss distance Type
VANGUARD 3 MEO 2024-08-08 04:08:45 0.0001209027 811.0 (m) PAYLOAD
FENGYUN 1C DEB SSO 2024-07-22 20:22:12 0.000103754 341.0 (m) DEBRIS

Associated space launch

Earth observation satellite

DELTA 1 DEB was lifted into orbit during the mission ‘Delta 2910 | Landsat 3’, on board a Delta 2910 space rocket.

The launch took place on March 5, 1978, 5:54 p.m. from Space Launch Complex 2W.

For more information about the launch, click the button.

Launch to space Delta 2910 | Landsat 3
Delta 2910 | Landsat 3

Agency: N/A

Status: Launch Successful

Launch date: March 5, 1978, 5:54 p.m. UTC

Rocket: Delta 2910

Launch pad: Space Launch Complex 2W

Location: Vandenberg SFB, CA, USA

...

Latest news about this satellite

There are no fresh news available about this satellite. Check back as we update our databases every day.


Newsletter sign-up

Weekly statistics, charts and insights to help you stay on top of the space industry.